Location: Irma
(52.9170°N, 111.2330°W)
Time: 06:05:11
(UTC-06:00)

Cosmos 1633 Rocket - Visible Passes

Search period start: 27 September 2016 00:00
Search period end: 07 October 2016 00:00
Orbit: 608 x 624 km, 82.5° (Epoch: 26 September)

Date Brightness Start Highest point End Pass type
(mag) Time Alt. Az. Time Alt. Az. Time Alt. Az.
27 Sep 3.5 21:32:49 10° N 21:36:36 46° NE 21:36:36 46° NE visible
27 Sep 5.3 23:11:12 10° NW 23:13:41 21° WNW 23:13:41 21° WNW visible
28 Sep 5.0 20:12:55 10° NNE 20:14:56 13° ENE 20:15:53 12° ENE visible
28 Sep 3.2 21:49:07 10° N 21:52:58 66° NNE 21:52:58 66° NNE visible
28 Sep 5.8 23:28:25 10° NW 23:30:04 14° WNW 23:30:04 14° WNW visible
29 Sep 4.5 20:28:27 10° NNE 20:31:38 19° ENE 20:32:18 19° ENE visible
29 Sep 3.6 22:05:33 10° NNW 22:09:23 57° WNW 22:09:23 57° WNW visible
30 Sep 3.9 20:44:23 10° N 20:48:15 29° ENE 20:48:43 29° E visible
30 Sep 4.4 22:22:06 10° NNW 22:25:49 36° W 22:25:49 36° W visible
01 Oct 3.3 21:00:32 10° N 21:04:47 46° ENE 21:05:11 45° E visible
01 Oct 5.1 22:38:52 10° NW 22:42:17 23° W 22:42:17 23° W visible
02 Oct 5.0 19:40:44 10° NNE 19:42:35 12° ENE 19:44:26 10° E visible
02 Oct 2.9 21:16:49 10° N 21:21:13 77° ENE 21:21:41 68° SE visible
02 Oct 5.7 22:56:02 10° NW 22:58:25 15° W 22:58:47 14° W visible
03 Oct 4.5 19:56:11 10° NNE 19:59:18 19° ENE 20:01:07 15° E visible
03 Oct 3.3 21:33:14 10° NNW 21:37:35 64° W 21:38:13 55° SW visible
04 Oct 4.0 20:12:07 10° N 20:15:56 28° ENE 20:17:42 21° ESE visible
04 Oct 4.3 21:49:47 10° NNW 21:53:50 38° W 21:54:48 33° WSW visible
05 Oct 3.3 20:28:15 10° N 20:32:28 45° ENE 20:34:20 28° SE visible
05 Oct 5.1 22:06:32 10° NW 22:10:01 24° W 22:11:27 20° WSW visible
06 Oct 2.9 20:44:31 10° N 20:48:55 75° E 20:51:03 29° SSE visible
06 Oct 5.8 22:23:39 10° NW 22:26:08 15° W 22:28:11 11° WSW visible
